Regional Weather Roundup
Issued by NWS Newport/Morehead, NC

Current Version | Previous Version | Graphics & Text | Print | Product List | Glossary On
Versions: 1 2 3 4 5 6 7 8 9 10 11 12 13 14 15 16 17 18 19 20 21 22 23 24 25 26 27 28 29 30 31 32 33 34 35 36 37 38 39 40 41 42 43 44 45 46 47 48 49 50
000 ASUS42 KMHX 221022 RWRMHX WEATHER ROUNDUP FOR EASTERN NORTH CAROLINA NATIONAL WEATHER SERVICE NEWPORT/MOREHEAD CITY NC 500 AM EST MON DEC 22 2014 NOTE: "FAIR" INDICATES FEW OR NO CLOUDS BELOW 12,000 FEET WITH NO SIGNIFICANT WEATHER AND/OR OBSTRUCTIONS TO VISIBILITY NCZ015>017-031-032-045>047-102-103-221100- NORTH COAST CITY SKY/WX TMP DP RH WIND PRES REMARKS EDENTON RAIN 42 41 95 NE12 30.14F ELIZABETH CITY LGT RAIN 47 40 76 NE17 30.16F KITTY HAWK LGT RAIN 48 46 91 NE9G20 30.13F MANTEO CLOUDY 48 46 93 NE18G25 30.13F $$ NCZ045>047-081-094-103-104-221100- CENTRAL COAST CITY SKY/WX TMP DP RH WIND PRES REMARKS FRISCO LGT RAIN 50 50 100 N9 30.08F FOG SWANQUARTER N/A 46 N/A N/A NE8G18 30.03F $$ NCZ095-097-098-100-101-221100- SOUTHERN COAST CITY SKY/WX TMP DP RH WIND PRES REMARKS BEAUFORT CLOUDY 50 49 96 NE10 30.04F FOG CEDAR ISLAND N/A 48 N/A N/A NE23G30 30.09S JACKSONVILLE CLOUDY 44 43 96 N9 30.06F FOG PINEY ISLAND N/A N/A N/A N/A MISG 30.04F WILMINGTON CLOUDY 45 44 97 N10 30.05F $$ NCZ011>013-027>030-043-044-078>080-089-090>093-098-221100- COASTAL PLAIN CITY SKY/WX TMP DP RH WIND PRES REMARKS AHOSKIE MIX PCPN 37 35 92 N7 30.17F CLINTON DRIZZLE 40 40 100 NE7 30.10R ELIZABETHTOWN RAIN 41 41 100 N3 30.08S GOLDSBORO LGT RAIN 39 39 100 NE6 30.10F GREENVILLE MIX PCPN 39 37 93 NE12 30.12F HAVELOCK CLOUDY 49 47 93 NE16G22 30.07F KENANSVILLE LGT RAIN 40 39 99 NE6 30.10F KINSTON RAIN 40 40 99 N6 30.12S NEW BERN CLOUDY 48 44 86 NE7 30.09F RICHLANDS CLOUDY 43 39 87 N6 30.08S ROCKY MOUNT LGT RAIN 38 36 92 NE16 30.14F FOG WASHINGTON CLOUDY 41 40 95 NE13 30.10F WHITEVILLE CLOUDY 43 41 95 N3 30.06R $$ AMZ130-135-150-152-154-156-158-170-250-252-270-ANZ085-086-088-633-658-670-221100- MARINE OBSERVATIONS STATION/POSITION TIME TEMP WIND PRES WAVE SWELL AIR SEA DIR/SP/G HT/PER HT/PER (UTC) (F) (DEG/KT/KT) (MB) (FT/S) (FT/S) CHESAPEAKE LIGHT 1000 45 50/ 24/ 25 1022.7 64 E VA BEACH 1000 52 53 50/ 21/ 23 1020.9 4/ 4 2/10 DUCK 1000 48 46 40/ 23/ 27 1019.8 2 E DUCK 1000 46 N/A 6/ 5 10 NE DUCK 1000 52 N/A 6/ 5 OREGON INLET 1000 49 48 30/ 15/ 19 1019.7 13E OREGON INLT 1000 52 N/A 5/ 5 HATTERAS CG 1000 51 49 60/ 7/ 16 1018.7 DIAMOND BUOY 1000 64 1017.9 7/ 7 17 S OCRACOKE NOT AVBL CAPE LOOKOUT 1000 54 30/ 14/ 17 1016.5 BEAUFORT LAB 1000 50 50 20/ 9/ 12 1016.2 30 SE NEW RIVER 1000 58 60 30/ 17/ 19 1015.9 7/ 7 5 SE WRIGHTSVLE NOT AVBL 225 S CAPE HAT 0949 73 72 200/ 12/ 14 1016.7 6/ 7 5/ 7 41 SE CHARLESTON 1000 70 73 300/ 6/ 8 1014.9 6/10 7/10 $$

USA.gov is the U.S. government's official web portal to all federal, state and local government web resources and services.